Showing default

OPS 8464 (TRANSIT 5B-7), 1514

Orbit data source: Space-Track

OPS 8464 (TRANSIT 5B-7), 1514 is a payload satellite owned by USN BuWeps (US) in LEO that was launched on Fri, 13 Aug 1965 UTC via a THOR ABLESTAR launch vehicle from the Air Force Western Test Range (AFWTR). Payload-class satellites include a variety of spacecraft equipped with specific instruments for various scientific and technological missions. These include communications satellites like Starlink; space stations such as the ISS; scientific satellites like the Hubble; Earth observation satellites from companies like Planet Labs, Umbra, and HawkEye 360; GPS; miniature CubeSats for education and research; and military/defense satellites.

Loading next visibility...
Identifier
1514, 1965-065F
Orbit
LEO
Country
Flag of USUS
Related business
Manufacturer
NAFI
Mission
Spacecraft
Bus & Motor
TRANSIT 5, Unknown motor
Mass
~54 kg wet, ~54 kg dry
Launch date (UTC)
1965-08-13 (61 years ago)
Launch vehicle
THOR ABLESTAR
Launch site
Air Force Western Test Range (AFWTR)
Object type
Payload
Rocket body
Debris
Shape & HBR
Unknown
Radar Cross Section
Large (>1 m²)

Expand to show TLE details & history
Last TLE update: 6 days ago

TLE from 6 days ago
0 OPS 8464 (TRANSIT 5B-7)
1 01514U 65065F   26155.12590838  .00000122  00000-0  22018-3 0  9999
2 01514  89.9973 227.8998 0069728 195.7088 225.0994 13.35368135959522
Epoch: 2026-06-04T03:01Z
TLE epoch observation values (Epoch: 2026-06-04T03:01:18.484Z)
Latitude
60.33388°
Longitude
-69.99716°
Altitude
1,174.062 km
Speed
7.254 km/s
True Right ascension
15h 11m 37s
True Declination
60° 11' 38"
Sunlit
Object was in daylight at epoch
Visualization orbit readout
Latitude
Unknown
Longitude
Unknown
Altitude
Unknown
Speed
Unknown
Apparent Right ascension
Unknown
Apparent Declination
Unknown
Sunlit
N/A
Visualization observer readout
Local Sidereal Time
09:35:35
Azimuth
Unknown
Elevation
Unknown
Doppler factor
Unknown
Orbital elements
Apogee altitude
1,175.963 km
Perigee altitude
1,071.346 km
Semi-major axis
7,501.791 km
Eccentricity
0.00697
Inclination
89.9973°
RAAN
227.8998°
Arg. of periapsis
195.7088°
True anomaly
224.5369°
Mean anomaly
225.0994°
Eccentric anomaly
224.8178°
Mean motion
3.34038 °/min
Orbital period
107.77 mins
BSTAR
0.00022018
Loading maneuver chart data...
Computing Atmospheric mass density...
Loading historical data...
Loading historical data...
Loading historical data...
Loading historical data...
Loading historical data...
Loading historical data...
Loading historical data...

Documentation

Showing up to 5 results
|